• In Russia
  • List of Countries
  • For 7 days
  • Water Temperature
  • Satellite Maps
  • Weather Map
  • Weather Widgets
  • user-avatar
    Login

    Hourly Weather Malanje

    Today, 17 July, Wednesday

    Time Temperature Precipitation Wind Pressure Humidity
    00:00 +19°C° 0 mm 1 mps 666 mmHg 37%
    01:00 +18°C° 0 mm 1 mps 666 mmHg 38%
    02:00 +18°C° 0 mm 1 mps 666 mmHg 37%
    03:00 +16°C° 0 mm 1 mps 666 mmHg 36%
    04:00 +16°C° 0 mm 2 mps 666 mmHg 36%
    05:00 +16°C° 0 mm 2 mps 666 mmHg 34%
    06:00 +16°C° 0 mm 2 mps 666 mmHg 32%
    07:00 +17°C° 0 mm 2 mps 667 mmHg 30%
    08:00 +20°C° 0 mm 2 mps 668 mmHg 27%
    09:00 +24°C° 0 mm 3 mps 668 mmHg 23%
    10:00 +27°C° 0 mm 3 mps 669 mmHg 19%
    11:00 +30°C° 0 mm 3 mps 669 mmHg 18%
    12:00 +33°C° 0 mm 3 mps 669 mmHg 17%
    13:00 +35°C° 0 mm 2 mps 668 mmHg 16%
    14:00 +34°C° 0 mm 2 mps 668 mmHg 16%
    15:00 +34°C° 0 mm 2 mps 667 mmHg 16%
    16:00 +34°C° 0 mm 3 mps 666 mmHg 16%
    17:00 +30°C° 0 mm 2 mps 666 mmHg 19%
    18:00 +27°C° 0 mm 1 mps 666 mmHg 23%
    19:00 +24°C° 0 mm 1 mps 666 mmHg 26%
    20:00 +23°C° 0 mm 1 mps 666 mmHg 28%
    21:00 +20°C° 0 mm 0 mps 666 mmHg 29%
    22:00 +19°C° 0 mm 0 mps 666 mmHg 31%
    23:00 +19°C° 0 mm 0 mps 666 mmHg 32%

    Tomorrow, 18 July, Thursday

    Time Temperature Precipitation Wind Pressure Humidity
    00:00 +20°C° 0 mm 1 mps 666 mmHg 33%
    01:00 +19°C° 0 mm 1 mps 665 mmHg 34%
    02:00 +19°C° 0 mm 1 mps 665 mmHg 36%
    03:00 +18°C° 0 mm 1 mps 665 mmHg 38%
    04:00 +16°C° 0 mm 1 mps 665 mmHg 40%
    05:00 +16°C° 0 mm 2 mps 665 mmHg 39%
    06:00 +16°C° 0 mm 2 mps 666 mmHg 38%
    07:00 +16°C° 0 mm 2 mps 666 mmHg 38%
    08:00 +20°C° 0 mm 3 mps 667 mmHg 31%
    09:00 +25°C° 0 mm 3 mps 668 mmHg 25%
    10:00 +28°C° 0 mm 4 mps 669 mmHg 19%
    11:00 +30°C° 0 mm 3 mps 668 mmHg 17%
    12:00 +33°C° 0 mm 3 mps 668 mmHg 15%
    13:00 +35°C° 0 mm 3 mps 667 mmHg 13%
    14:00 +35°C° 0 mm 2 mps 667 mmHg 13%
    15:00 +35°C° 0 mm 2 mps 666 mmHg 12%
    16:00 +35°C° 0 mm 2 mps 665 mmHg 12%
    17:00 +31°C° 0 mm 2 mps 665 mmHg 15%
    18:00 +28°C° 0 mm 1 mps 665 mmHg 18%
    19:00 +25°C° 0 mm 1 mps 665 mmHg 21%
    20:00 +24°C° 0 mm 1 mps 665 mmHg 23%
    21:00 +23°C° 0 mm 1 mps 665 mmHg 24%
    22:00 +22°C° 0 mm 1 mps 665 mmHg 25%
    23:00 +21°C° 0 mm 1 mps 665 mmHg 30%

    Day after tomorrow, 19 July, Friday

    Time Temperature Precipitation Wind Pressure Humidity
    00:00 +19°C° 0 mm 1 mps 665 mmHg 34%
    01:00 +18°C° 0 mm 1 mps 665 mmHg 39%
    02:00 +18°C° 0 mm 1 mps 665 mmHg 41%
    03:00 +16°C° 0 mm 1 mps 664 mmHg 43%
    04:00 +15°C° 0 mm 1 mps 664 mmHg 45%
    05:00 +15°C° 0 mm 1 mps 665 mmHg 43%
    06:00 +15°C° 0 mm 1 mps 665 mmHg 40%
    07:00 +15°C° 0 mm 1 mps 666 mmHg 38%
    08:00 +19°C° 0 mm 2 mps 666 mmHg 32%
    09:00 +24°C° 0 mm 3 mps 667 mmHg 25%
    10:00 +28°C° 0 mm 4 mps 668 mmHg 19%
    11:00 +30°C° 0 mm 3 mps 668 mmHg 17%
    12:00 +33°C° 0 mm 3 mps 667 mmHg 15%
    13:00 +35°C° 0 mm 3 mps 667 mmHg 12%
    14:00 +35°C° 0 mm 3 mps 666 mmHg 12%
    15:00 +35°C° 0 mm 2 mps 666 mmHg 12%
    16:00 +34°C° 0 mm 2 mps 665 mmHg 12%
    17:00 +30°C° 0 mm 2 mps 665 mmHg 15%
    18:00 +27°C° 0 mm 2 mps 665 mmHg 17%
    19:00 +24°C° 0 mm 1 mps 664 mmHg 20%
    20:00 +23°C° 0 mm 1 mps 665 mmHg 21%
    21:00 +22°C° 0 mm 1 mps 665 mmHg 22%
    22:00 +21°C° 0 mm 1 mps 665 mmHg 23%
    23:00 +19°C° 0 mm 1 mps 665 mmHg 30%

    20 July, Saturday

    Time Temperature Precipitation Wind Pressure Humidity
    00:00 +18°C° 0 mm 1 mps 664 mmHg 37%
    01:00 +16°C° 0 mm 1 mps 664 mmHg 44%
    02:00 +15°C° 0 mm 1 mps 664 mmHg 45%
    03:00 +15°C° 0 mm 1 mps 664 mmHg 47%
    04:00 +14°C° 0 mm 1 mps 664 mmHg 49%
    05:00 +14°C° 0 mm 1 mps 664 mmHg 44%
    06:00 +14°C° 0 mm 1 mps 665 mmHg 40%
    07:00 +14°C° 0 mm 1 mps 665 mmHg 35%
    08:00 +18°C° 0 mm 2 mps 666 mmHg 29%
    09:00 +24°C° 0 mm 2 mps 667 mmHg 22%
    10:00 +28°C° 0 mm 3 mps 668 mmHg 16%
    11:00 +30°C° 0 mm 2 mps 668 mmHg 13%
    12:00 +34°C° 0 mm 2 mps 668 mmHg 11%
    13:00 +35°C° 0 mm 1 mps 667 mmHg 9%
    14:00 +35°C° 0 mm 1 mps 667 mmHg 9%
    15:00 +34°C° 0 mm 1 mps 666 mmHg 9%
    16:00 +34°C° 0 mm 1 mps 665 mmHg 9%
    17:00 +30°C° 0 mm 1 mps 665 mmHg 11%
    18:00 +27°C° 0 mm 1 mps 665 mmHg 14%
    19:00 +23°C° 0 mm 1 mps 664 mmHg 17%
    20:00 +22°C° 0 mm 1 mps 665 mmHg 21%
    21:00 +20°C° 0 mm 2 mps 665 mmHg 24%
    22:00 +19°C° 0 mm 2 mps 665 mmHg 28%
    23:00 +18°C° 0 mm 2 mps 665 mmHg 44%

    21 July, Sunday

    Time Temperature Precipitation Wind Pressure Humidity
    00:00 +16°C° 0 mm 2 mps 665 mmHg 61%
    01:00 +15°C° 0 mm 2 mps 664 mmHg 77%
    02:00 +14°C° 0 mm 2 mps 664 mmHg 83%
    03:00 +14°C° 0 mm 2 mps 665 mmHg 89%
    04:00 +14°C° 0 mm 2 mps 665 mmHg 96%
    05:00 +14°C° 0 mm 2 mps 665 mmHg 93%
    06:00 +15°C° 0 mm 2 mps 666 mmHg 91%
    07:00 +15°C° 0 mm 2 mps 667 mmHg 89%
    08:00 +19°C° 0 mm 2 mps 667 mmHg 71%
    09:00 +23°C° 0 mm 2 mps 668 mmHg 53%
    10:00 +26°C° 0 mm 1 mps 669 mmHg 35%
    11:00 +30°C° 0 mm 1 mps 669 mmHg 28%
    12:00 +33°C° 0 mm 1 mps 669 mmHg 20%
    13:00 +36°C° 0 mm 1 mps 669 mmHg 13%
    14:00 +35°C° 0 mm 1 mps 668 mmHg 12%
    15:00 +35°C° 0 mm 1 mps 667 mmHg 12%
    16:00 +34°C° 0 mm 1 mps 666 mmHg 11%
    17:00 +28°C° 0 mm 0 mps 666 mmHg 15%
    18:00 +25°C° 0 mm 0 mps 666 mmHg 18%
    19:00 +21°C° 0 mm 0 mps 665 mmHg 22%
    20:00 +22°C° 0 mm 1 mps 665 mmHg 29%
    21:00 +20°C° 0 mm 2 mps 666 mmHg 36%
    22:00 +19°C° 0 mm 2 mps 666 mmHg 43%
    23:00 +18°C° 0 mm 2 mps 666 mmHg 52%

    22 July, Monday

    Time Temperature Precipitation Wind Pressure Humidity
    00:00 +17°C° 0 mm 2 mps 665 mmHg 62%
    01:00 +16°C° 0 mm 2 mps 665 mmHg 72%
    02:00 +15°C° 0 mm 2 mps 665 mmHg 80%
    03:00 +14°C° 0 mm 2 mps 665 mmHg 87%
    04:00 +13°C° 0 mm 2 mps 665 mmHg 95%
    05:00 +13°C° 0 mm 2 mps 665 mmHg 94%
    06:00 +14°C° 0 mm 2 mps 666 mmHg 93%
    07:00 +14°C° 0 mm 2 mps 666 mmHg 92%
    08:00 +18°C° 0 mm 2 mps 667 mmHg 70%
    09:00 +24°C° 0 mm 2 mps 668 mmHg 49%
    10:00 +28°C° 0 mm 2 mps 669 mmHg 27%
    11:00 +30°C° 0 mm 2 mps 668 mmHg 22%
    12:00 +32°C° 0 mm 2 mps 668 mmHg 17%
    13:00 +36°C° 0 mm 2 mps 667 mmHg 11%
    14:00 +36°C° 0 mm 2 mps 667 mmHg 11%
    15:00 +35°C° 0 mm 2 mps 666 mmHg 11%
    16:00 +35°C° 0 mm 2 mps 666 mmHg 11%
    17:00 +31°C° 0 mm 1 mps 665 mmHg 14%
    18:00 +27°C° 0 mm 1 mps 665 mmHg 18%
    19:00 +24°C° 0 mm 1 mps 665 mmHg 21%
    20:00 +23°C° 0 mm 1 mps 665 mmHg 34%
    21:00 +20°C° 0 mm 2 mps 665 mmHg 47%
    22:00 +18°C° 0 mm 2 mps 665 mmHg 59%
    23:00 +17°C° 0 mm 2 mps 665 mmHg 65%
    Show more